Regional Weather Roundup
Issued by NWS

Home | Current Version | Previous Version | Text Only | Print | Product List | Glossary Off
Versions: 1 2 3 4 5 6 7 8 9 10 11 12 13 14 15 16 17 18 19 20 21 22 23 24 25 26 27 28 29 30 31 32 33 34 35 36 37 38 39 40 41 42 43 44 45 46 47 48 49 50

000
ASUS44 KMEG 181500
RWRTN
TENNESSEE HOURLY STATE WEATHER ROUNDUP
NATIONAL WEATHER SERVICE MEMPHIS TN
900 AM CST SAT NOV 18 2017

TNZ002-004-019-021-049-052-054-088>092-181600-
WEST TENNESSEE

CITY           SKY/WX    TMP DP  RH WIND       PRES   REMARKS
MEMPHIS INTL   CLOUDY    70  63  78 SW23G32   29.63F
NWS MEMPHIS      N/A     69 N/A N/A MISG        N/A
JACKSON        CLOUDY    69  62  78 S20G33    29.65F
DYERSBURG      CLOUDY    71  62  73 SW15G36   29.59F
$$

TNZ008-025-027-028-033-062-065-066-181600-
NORTH MIDDLE TENNESSEE

CITY           SKY/WX    TMP DP  RH WIND       PRES   REMARKS
NASHVILLE      CLOUDY    64  57  78 S18G25    29.71F
CLARKSVILLE    CLOUDY    63  58  83 S9        29.65F
SMYRNA         CLOUDY    63  57  81 S13G21    29.74F
CROSSVILLE     CLOUDY    55  45  68 S12G24    29.83F
$$

TNZ061-075-076-078-094-096-097-181600-
SOUTH MIDDLE TENNESSEE

CITY           SKY/WX    TMP DP  RH WIND       PRES   REMARKS
WINCHESTER     CLOUDY    63  54  72 S13       29.84F
$$

TNZ017-018-042-046-047-181600-
NORTHEAST TENNESSEE

CITY           SKY/WX    TMP DP  RH WIND       PRES   REMARKS
TRI CITIES     CLOUDY    54  37  52 CALM      29.85F
$$

TNZ012-013-036-069-073-074-181600-
CENTRAL EAST TENNESSEE

CITY           SKY/WX    TMP DP  RH WIND       PRES   REMARKS
KNOXVILLE      CLOUDY    61  49  64 SW17G25   29.84F
OAK RIDGE      CLOUDY    54  44  69 VRB3      29.88F
$$

TNZ083-085-099-181600-
SOUTHEAST TENNESSEE

CITY           SKY/WX    TMP DP  RH WIND       PRES   REMARKS
CHATTANOOGA    CLOUDY    58  44  60 S9        29.90F
$$

SKY/WX REPORTED AS FAIR MEANS FEW OR NO CLOUDS BELOW
12 THOUSAND FEET.





USA.gov is the U.S. government's official web portal to all federal, state and local government web resources and services.